TimeIST,TemperatureF,Dew PointF,Humidity,Sea Level PressureIn,VisibilityMPH,Wind Direction,Wind SpeedMPH,Gust SpeedMPH,PrecipitationIn,Events,Conditions,WindDirDegrees,DateUTC
12:00 AM,59.0,57.2,94,30.36,6.2,WSW,11.5,-,N/A,,Mostly Cloudy,240,2012-08-31 23:00:00
12:30 AM,59.0,57.2,94,30.36,6.2,SW,9.2,-,N/A,,Mostly Cloudy,220,2012-08-31 23:30:00
1:00 AM,59,56,86,30.37,12,SW,11.2,,,,Mostly Cloudy,220,2012-09-01 00:00:00
1:00 AM,59.0,55.4,88,30.36,6.2,SW,10.4,-,N/A,,Mostly Cloudy,220,2012-09-01 00:00:00
1:30 AM,59.0,55.4,88,30.36,6.2,SW,9.2,-,N/A,,Mostly Cloudy,220,2012-09-01 00:30:00
2:00 AM,57.2,55.4,94,30.33,6.2,SW,6.9,-,N/A,,Mostly Cloudy,220,2012-09-01 01:00:00
2:30 AM,57.2,55.4,94,30.33,6.2,SSW,6.9,-,N/A,,Mostly Cloudy,200,2012-09-01 01:30:00
3:00 AM,57.2,55.4,94,30.33,6.2,SSW,5.8,-,N/A,,Mostly Cloudy,200,2012-09-01 02:00:00
3:30 AM,57.2,55.4,94,30.33,6.2,South,5.8,-,N/A,,Mostly Cloudy,190,2012-09-01 02:30:00
4:00 AM,57.2,55.4,94,30.33,6.2,South,6.9,-,N/A,,Mostly Cloudy,190,2012-09-01 03:00:00
4:30 AM,57.2,55.4,94,30.33,6.2,South,8.1,-,N/A,,Mostly Cloudy,170,2012-09-01 03:30:00
5:00 AM,55.4,53.6,94,30.30,6.2,South,8.1,-,N/A,,Mostly Cloudy,170,2012-09-01 04:00:00
5:30 AM,55.4,55.4,100,30.30,6.2,South,8.1,-,N/A,,Mostly Cloudy,170,2012-09-01 04:30:00
6:00 AM,57.2,55.4,94,30.30,6.2,South,5.8,-,N/A,,Mostly Cloudy,180,2012-09-01 05:00:00
7:00 AM,56,54,91,30.30,19,SSE,6.7,,,,Mostly Cloudy,160,2012-09-01 06:00:00
7:00 AM,55.4,53.6,94,30.30,6.2,SSE,6.9,-,N/A,,Mostly Cloudy,160,2012-09-01 06:00:00
7:30 AM,57.2,55.4,94,30.30,6.2,SSE,5.8,-,N/A,,Scattered Clouds,160,2012-09-01 06:30:00
8:00 AM,59.0,53.6,82,30.27,6.2,South,5.8,-,N/A,,Scattered Clouds,170,2012-09-01 07:00:00
8:30 AM,59.0,53.6,82,30.27,6.2,South,9.2,-,N/A,,Partly Cloudy,190,2012-09-01 07:30:00
9:00 AM,60.8,55.4,82,30.27,6.2,South,9.2,-,N/A,,Mostly Cloudy,180,2012-09-01 08:00:00
9:30 AM,60.8,55.4,82,30.24,6.2,SSW,13.8,-,N/A,,Scattered Clouds,200,2012-09-01 08:30:00
10:00 AM,62.6,55.4,77,30.24,6.2,SW,17.3,-,N/A,,Scattered Clouds,220,2012-09-01 09:00:00
10:30 AM,62.6,55.4,77,30.24,6.2,SW,16.1,-,N/A,,Scattered Clouds,230,2012-09-01 09:30:00
11:00 AM,64.4,55.4,73,30.21,6.2,SW,20.7,-,N/A,,Scattered Clouds,220,2012-09-01 10:00:00
11:30 AM,64.4,55.4,73,30.21,6.2,SW,20.7,-,N/A,,Scattered Clouds,230,2012-09-01 10:30:00
12:00 PM,62.6,53.6,72,30.24,6.2,WSW,23.0,-,N/A,,Mostly Cloudy,240,2012-09-01 11:00:00
12:30 PM,64.4,55.4,73,30.21,6.2,SW,20.7,-,N/A,,Mostly Cloudy,230,2012-09-01 11:30:00
1:00 PM,64,54,61,30.24,25,SW,24.6,,,,Scattered Clouds,230,2012-09-01 12:00:00
1:00 PM,64.4,53.6,68,30.21,6.2,SW,24.2,-,N/A,,Mostly Cloudy,230,2012-09-01 12:00:00
1:30 PM,64.4,55.4,73,30.21,6.2,SW,20.7,-,N/A,,Mostly Cloudy,220,2012-09-01 12:30:00
2:00 PM,64.4,55.4,73,30.21,6.2,SW,26.5,-,N/A,,Mostly Cloudy,230,2012-09-01 13:00:00
2:30 PM,64.4,55.4,73,30.21,6.2,SW,23.0,-,N/A,,Mostly Cloudy,230,2012-09-01 13:30:00
3:00 PM,64.4,55.4,73,30.18,6.2,SW,24.2,-,N/A,,Mostly Cloudy,220,2012-09-01 14:00:00
3:30 PM,64.4,55.4,73,30.18,6.2,SW,19.6,-,N/A,,Mostly Cloudy,220,2012-09-01 14:30:00
4:00 PM,64.4,57.2,77,30.15,6.2,SW,17.3,-,N/A,,Mostly Cloudy,220,2012-09-01 15:00:00
4:30 PM,64.4,57.2,77,30.15,6.2,SW,19.6,-,N/A,,Mostly Cloudy,220,2012-09-01 15:30:00
5:00 PM,62.6,57.2,82,30.15,6.2,SW,18.4,-,N/A,Rain,Light Rain,230,2012-09-01 16:00:00
5:30 PM,60.8,59.0,94,30.15,3.1,SW,15.0,-,N/A,,Light Drizzle,220,2012-09-01 16:30:00
6:00 PM,60.8,59.0,94,30.15,2.2,SSW,15.0,-,N/A,,Light Drizzle,210,2012-09-01 17:00:00
6:30 PM,60.8,60.8,100,30.15,2.5,SW,13.8,-,N/A,,Light Drizzle,220,2012-09-01 17:30:00
7:00 PM,60,60,100,30.16,2,SSW,13.4,,,Rain,Light Drizzle,210,2012-09-01 18:00:00
7:00 PM,60.8,60.8,100,30.15,2.5,SSW,13.8,-,N/A,,Light Drizzle,210,2012-09-01 18:00:00
7:30 PM,60.8,60.8,100,30.12,2.8,SSW,11.5,-,N/A,,Light Drizzle,210,2012-09-01 18:30:00
8:00 PM,60.8,60.8,100,30.12,2.2,SSW,11.5,-,N/A,,Light Drizzle,210,2012-09-01 19:00:00
8:30 PM,60.8,60.8,100,30.12,2.8,SW,13.8,-,N/A,Rain,Light Rain,220,2012-09-01 19:30:00
9:00 PM,60.8,60.8,100,30.15,2.5,SW,13.8,-,N/A,,Light Drizzle,220,2012-09-01 20:00:00
9:30 PM,60.8,60.8,100,30.15,2.2,SW,10.4,-,N/A,,Light Drizzle,220,2012-09-01 20:30:00
10:00 PM,60.8,60.8,100,30.15,2.2,SW,11.5,-,N/A,,Light Drizzle,220,2012-09-01 21:00:00
10:30 PM,60.8,60.8,100,30.15,2.2,SW,11.5,-,N/A,,Light Drizzle,220,2012-09-01 21:30:00
11:00 PM,60.8,60.8,100,30.15,2.2,SW,11.5,-,N/A,,Light Drizzle,220,2012-09-01 22:00:00
11:30 PM,60.8,60.8,100,30.15,2.2,SW,11.5,-,N/A,,Light Drizzle,220,2012-09-01 22:30:00